Location: Mitty Observatory
(35.9148°N, 88.8847°W)
Time: 13:46:10
(UTC-06:00)

LightSail 2 - Pass Details

Date: 17 November 2019
Orbit: 696 x 730 km, 24.0° (Epoch: 06 December)

Event Time Altitude Azimuth Distance (km) Brightness Sun altitude
Exits shadow 03:40:24 14° 147° (SSE) 1,914 7.6 -35.0°
Drops below altitude 10° 03:41:34 10° 136° (SE) 2,205 8.1 -34.8°
Sets 03:44:32 0° 121° (ESE) 3,130 9.2 -34.2°
